OMD196 KMCO-KMZJ

Flight info

Callsign OMD196
Flight time N/A
Altitude 38000
Route RDSOX1 JFRYS PATOY Q116 JAWJA CABLO DEFUN J2 IAH J86 ELP J2 TUS
Aircraft A21N/M-SDE2E3FGHIRWXY/LB1

Departure

Time N/A
Airport Orlando International Airport (KMCO)

Arrival

Time 2026-05-07 00:52
Airport Pinal Airpark (KMZJ)
Time Latitude Longitude Altitude Speed Heading
2026-05-06 21:33 30.42347 -88.65373 37997 ft 376 kts 266°
2026-05-06 21:33 30.42066 -88.71430 37997 ft 377 kts 266°
2026-05-06 21:34 30.41781 -88.77491 37972 ft 376 kts 266°
2026-05-06 21:34 30.41492 -88.83549 37966 ft 376 kts 266°
2026-05-06 21:35 30.41204 -88.89597 37970 ft 375 kts 266°
2026-05-06 21:35 30.40912 -88.95635 37964 ft 375 kts 266°
2026-05-06 21:36 30.40620 -89.01637 37966 ft 375 kts 266°
2026-05-06 21:36 30.40323 -89.07681 37986 ft 375 kts 266°
2026-05-06 21:37 30.40021 -89.13713 37975 ft 375 kts 266°
2026-05-06 21:37 30.39716 -89.19752 37977 ft 375 kts 266°
2026-05-06 21:38 30.39404 -89.25803 37965 ft 378 kts 266°
2026-05-06 21:38 30.39093 -89.31861 37969 ft 379 kts 266°
2026-05-06 21:39 30.38771 -89.37956 37969 ft 379 kts 266°
2026-05-06 21:39 30.38452 -89.44069 37971 ft 380 kts 266°
2026-05-06 21:40 30.38126 -89.50178 37971 ft 380 kts 266°
2026-05-06 21:40 30.37801 -89.56279 37969 ft 379 kts 266°
2026-05-06 21:41 30.37477 -89.62384 37950 ft 379 kts 266°
2026-05-06 21:41 30.37151 -89.68490 37943 ft 379 kts 266°
2026-05-06 21:42 30.36824 -89.74550 37949 ft 379 kts 266°
2026-05-06 21:42 30.36486 -89.80651 37951 ft 379 kts 265°
2026-05-06 21:43 30.36146 -89.86744 37951 ft 379 kts 266°
2026-05-06 21:43 30.35804 -89.92848 37950 ft 379 kts 265°
2026-05-06 21:44 30.35462 -89.98946 37958 ft 379 kts 265°
2026-05-06 21:44 30.35117 -90.05038 37949 ft 378 kts 265°
2026-05-06 21:45 30.34774 -90.11066 37945 ft 377 kts 265°
2026-05-06 21:45 30.34427 -90.17122 37939 ft 377 kts 265°
2026-05-06 21:46 30.34071 -90.23188 37944 ft 377 kts 265°
2026-05-06 21:46 30.33720 -90.29243 37941 ft 377 kts 265°
2026-05-06 21:47 30.33365 -90.35263 37930 ft 377 kts 265°
2026-05-06 21:47 30.33004 -90.41326 37932 ft 378 kts 265°
2026-05-06 21:48 30.32636 -90.47420 37936 ft 379 kts 265°
2026-05-06 21:48 30.32266 -90.53511 37933 ft 379 kts 265°
2026-05-06 21:49 30.31898 -90.59562 37936 ft 379 kts 265°
2026-05-06 21:49 30.31520 -90.65654 37932 ft 379 kts 265°
2026-05-06 21:50 30.31149 -90.71740 37933 ft 379 kts 265°
2026-05-06 21:50 30.30771 -90.77839 37938 ft 379 kts 265°
2026-05-06 21:51 30.30395 -90.83880 37935 ft 378 kts 265°
2026-05-06 21:51 30.30020 -90.89962 37934 ft 379 kts 265°
2026-05-06 21:52 30.29634 -90.96037 37926 ft 379 kts 265°
2026-05-06 21:52 30.29239 -91.02118 37921 ft 378 kts 265°
2026-05-06 21:53 30.28838 -91.08183 37919 ft 378 kts 265°
2026-05-06 21:53 30.28436 -91.14251 37920 ft 378 kts 265°
2026-05-06 21:54 30.28043 -91.20274 37926 ft 377 kts 264°
2026-05-06 21:54 30.27646 -91.26333 37921 ft 377 kts 264°
2026-05-06 21:55 30.27311 -91.31362 37929 ft 377 kts 264°
2026-05-06 21:55 30.26908 -91.37458 37928 ft 377 kts 264°
2026-05-06 21:56 30.26508 -91.43470 37925 ft 377 kts 264°
2026-05-06 21:56 30.26097 -91.49528 37927 ft 377 kts 264°
2026-05-06 21:57 30.25682 -91.55580 37936 ft 376 kts 264°
2026-05-06 21:57 30.25271 -91.61562 37923 ft 375 kts 264°
2026-05-06 21:58 30.24854 -91.67580 37923 ft 375 kts 264°
2026-05-06 21:58 30.24435 -91.73599 37926 ft 375 kts 264°
2026-05-06 21:59 30.24014 -91.79617 37925 ft 375 kts 264°
2026-05-06 21:59 30.23589 -91.85642 37924 ft 375 kts 264°
2026-05-06 22:00 30.23163 -91.91626 37917 ft 375 kts 264°
2026-05-06 22:00 30.22730 -91.97646 37914 ft 376 kts 264°
2026-05-06 22:01 30.22294 -92.03682 37918 ft 376 kts 264°
2026-05-06 22:01 30.21861 -92.09710 37914 ft 376 kts 264°
2026-05-06 22:02 30.21424 -92.15729 37901 ft 376 kts 264°
2026-05-06 22:02 30.20983 -92.21752 37909 ft 376 kts 264°
2026-05-06 22:03 30.20537 -92.27779 37907 ft 376 kts 264°
2026-05-06 22:03 30.20094 -92.33751 37905 ft 374 kts 263°
2026-05-06 22:04 30.19649 -92.39751 37902 ft 374 kts 263°
2026-05-06 22:04 30.19200 -92.45751 37901 ft 374 kts 263°
2026-05-06 22:05 30.18740 -92.51751 37900 ft 374 kts 263°
2026-05-06 22:05 30.18286 -92.57711 37900 ft 374 kts 263°
2026-05-06 22:06 30.17829 -92.63706 37896 ft 374 kts 263°
2026-05-06 22:06 30.17367 -92.69704 37907 ft 374 kts 263°
2026-05-06 22:07 30.16903 -92.75703 37893 ft 374 kts 263°
2026-05-06 22:07 30.16436 -92.81700 37888 ft 374 kts 263°
2026-05-06 22:08 30.15970 -92.87659 37886 ft 374 kts 263°
2026-05-06 22:08 30.15498 -92.93656 37882 ft 374 kts 263°
2026-05-06 22:09 30.15025 -92.99616 37883 ft 374 kts 263°
2026-05-06 22:09 30.14545 -93.05608 37884 ft 374 kts 263°
2026-05-06 22:10 30.14064 -93.11625 37884 ft 376 kts 263°
2026-05-06 22:10 30.13620 -93.17656 37883 ft 376 kts 264°
2026-05-06 22:11 30.13174 -93.23683 37878 ft 376 kts 264°
2026-05-06 22:11 30.12722 -93.29719 37880 ft 377 kts 264°
2026-05-06 22:12 30.12267 -93.35751 37890 ft 377 kts 264°
2026-05-06 22:12 30.11810 -93.41771 37888 ft 377 kts 264°
2026-05-06 22:13 30.11353 -93.47762 37894 ft 376 kts 264°
2026-05-06 22:13 30.10889 -93.53795 37888 ft 376 kts 263°
2026-05-06 22:14 30.10420 -93.59821 37890 ft 376 kts 263°
2026-05-06 22:14 30.09952 -93.65848 37887 ft 376 kts 263°
2026-05-06 22:15 30.09477 -93.71833 37886 ft 376 kts 263°
2026-05-06 22:15 30.09007 -93.77865 37896 ft 376 kts 263°
2026-05-06 22:16 30.08529 -93.83900 37902 ft 379 kts 264°
2026-05-06 22:16 30.08046 -93.89937 37903 ft 380 kts 263°
2026-05-06 22:17 30.07553 -93.96048 37900 ft 380 kts 263°
2026-05-06 22:17 30.07066 -94.02094 37860 ft 380 kts 263°
2026-05-06 22:18 30.06571 -94.08168 37872 ft 380 kts 263°
2026-05-06 22:18 30.06074 -94.14243 37874 ft 380 kts 263°
2026-05-06 22:19 30.05580 -94.20321 37887 ft 379 kts 263°
2026-05-06 22:19 30.05089 -94.26316 37871 ft 373 kts 263°
2026-05-06 22:20 30.04598 -94.32282 37872 ft 373 kts 263°
2026-05-06 22:20 30.04103 -94.38244 37860 ft 373 kts 263°
2026-05-06 22:21 30.03602 -94.44205 37867 ft 373 kts 262°
2026-05-06 22:21 30.03092 -94.50165 37870 ft 373 kts 262°
2026-05-06 22:22 30.02595 -94.56093 37866 ft 373 kts 262°
2026-05-06 22:22 30.02089 -94.62048 37868 ft 372 kts 262°
2026-05-06 22:23 30.01580 -94.67989 37866 ft 372 kts 262°
2026-05-06 22:23 30.01066 -94.73933 37863 ft 372 kts 262°
2026-05-06 22:24 30.00554 -94.79872 37866 ft 372 kts 262°
2026-05-06 22:24 30.00035 -94.85813 37872 ft 372 kts 262°
2026-05-06 22:25 29.99518 -94.91751 37861 ft 372 kts 262°
2026-05-06 22:25 29.98997 -94.97656 37862 ft 372 kts 262°
2026-05-06 22:26 29.98472 -95.03590 37854 ft 372 kts 262°
2026-05-06 22:26 29.97945 -95.09532 37851 ft 372 kts 262°
2026-05-06 22:27 29.97416 -95.15475 37848 ft 372 kts 262°
2026-05-06 22:27 29.96879 -95.21379 37841 ft 372 kts 262°
2026-05-06 22:28 29.96347 -95.27322 37839 ft 372 kts 262°
2026-05-06 22:28 29.95863 -95.33278 37856 ft 374 kts 265°
2026-05-06 22:29 29.96396 -95.39273 37842 ft 379 kts 275°
2026-05-06 22:29 29.97390 -95.45314 37844 ft 387 kts 275°
2026-05-06 22:30 29.98374 -95.51419 37852 ft 387 kts 275°
2026-05-06 22:30 29.99348 -95.57494 37854 ft 388 kts 275°
2026-05-06 22:31 30.00321 -95.63604 37833 ft 385 kts 275°
2026-05-06 22:31 30.01289 -95.69676 37830 ft 384 kts 275°
2026-05-06 22:32 30.02258 -95.75736 37831 ft 383 kts 275°
2026-05-06 22:32 30.03216 -95.81781 37805 ft 383 kts 275°
2026-05-06 22:33 30.04162 -95.87795 37799 ft 383 kts 275°
2026-05-06 22:33 30.05111 -95.93856 37769 ft 383 kts 275°
2026-05-06 22:34 30.06058 -95.99919 37755 ft 383 kts 275°
2026-05-06 22:34 30.07004 -96.05976 37736 ft 383 kts 275°
2026-05-06 22:35 30.07944 -96.12033 37711 ft 381 kts 275°
2026-05-06 22:35 30.08862 -96.17991 37683 ft 379 kts 275°
2026-05-06 22:36 30.09787 -96.24006 37699 ft 379 kts 275°
2026-05-06 22:36 30.10714 -96.30015 37697 ft 379 kts 274°
2026-05-06 22:37 30.11631 -96.35986 37701 ft 379 kts 275°
2026-05-06 22:37 30.12551 -96.41993 37724 ft 379 kts 274°
2026-05-06 22:38 30.13311 -96.46994 37721 ft 379 kts 274°
2026-05-06 22:38 30.14227 -96.53014 37720 ft 379 kts 274°
2026-05-06 22:39 30.15137 -96.59029 37763 ft 379 kts 274°
2026-05-06 22:39 30.16037 -96.65001 37806 ft 379 kts 274°
2026-05-06 22:40 30.16940 -96.71008 37860 ft 379 kts 274°
2026-05-06 22:40 30.17842 -96.77017 37896 ft 379 kts 274°
2026-05-06 22:41 30.19193 -96.86034 37963 ft 379 kts 274°
2026-05-06 22:42 30.20080 -96.91992 37962 ft 377 kts 274°
2026-05-06 22:42 30.20969 -96.97975 37964 ft 377 kts 274°
2026-05-06 22:43 30.21852 -97.03948 37973 ft 376 kts 273°
2026-05-06 22:43 30.22732 -97.09900 37961 ft 375 kts 273°
2026-05-06 22:44 30.23608 -97.15857 37896 ft 375 kts 273°
2026-05-06 22:44 30.24475 -97.21773 37892 ft 375 kts 273°
2026-05-06 22:45 30.25345 -97.27729 37887 ft 375 kts 273°
2026-05-06 22:45 30.26213 -97.33680 37921 ft 375 kts 273°
2026-05-06 22:46 30.27076 -97.39639 37922 ft 375 kts 273°
2026-05-06 22:46 30.27936 -97.45598 37926 ft 375 kts 273°
2026-05-06 22:47 30.28797 -97.51558 37915 ft 375 kts 273°
2026-05-06 22:47 30.29653 -97.57512 37950 ft 375 kts 273°
2026-05-06 22:48 30.30501 -97.63440 37952 ft 375 kts 272°
2026-05-06 22:48 30.31351 -97.69403 37958 ft 375 kts 272°
2026-05-06 22:49 30.32202 -97.75353 37947 ft 375 kts 272°
2026-05-06 22:49 30.33048 -97.81310 37950 ft 375 kts 272°
2026-05-06 22:50 30.33887 -97.87267 37950 ft 375 kts 272°
2026-05-06 22:50 30.34723 -97.93193 37924 ft 375 kts 272°
2026-05-06 22:51 30.35560 -97.99153 37935 ft 375 kts 272°
2026-05-06 22:51 30.36398 -98.05133 37942 ft 376 kts 272°
2026-05-06 22:52 30.37231 -98.11118 37933 ft 376 kts 272°
2026-05-06 22:52 30.38062 -98.17101 37939 ft 376 kts 272°
2026-05-06 22:53 30.38890 -98.23093 37993 ft 376 kts 272°
2026-05-06 22:53 30.39715 -98.29081 38011 ft 376 kts 272°
2026-05-06 22:54 30.40532 -98.35030 38012 ft 376 kts 272°
2026-05-06 22:54 30.41354 -98.41028 38014 ft 377 kts 272°
2026-05-06 22:55 30.42174 -98.47034 37946 ft 377 kts 272°
2026-05-06 22:55 30.42986 -98.52999 37940 ft 377 kts 272°
2026-05-06 22:56 30.43800 -98.59009 37927 ft 377 kts 272°
2026-05-06 22:56 30.44611 -98.65013 37931 ft 377 kts 272°
2026-05-06 22:57 30.45416 -98.71011 37943 ft 376 kts 272°
2026-05-06 22:57 30.46213 -98.77012 37940 ft 377 kts 271°
2026-05-06 22:58 30.47013 -98.82980 37938 ft 377 kts 271°
2026-05-06 22:58 30.47818 -98.88991 37932 ft 377 kts 271°
2026-05-06 22:59 30.48617 -98.95005 37926 ft 377 kts 271°
2026-05-06 22:59 30.49411 -99.01020 37921 ft 377 kts 271°
2026-05-06 23:00 30.50198 -99.06995 37926 ft 377 kts 271°
2026-05-06 23:00 30.50988 -99.13018 37933 ft 377 kts 271°
2026-05-06 23:01 30.51774 -99.19042 37930 ft 377 kts 271°
2026-05-06 23:01 30.52554 -99.25024 37921 ft 377 kts 271°
2026-05-06 23:02 30.53335 -99.31052 37921 ft 377 kts 271°
2026-05-06 23:02 30.54113 -99.37069 37923 ft 377 kts 271°
2026-05-06 23:03 30.54889 -99.43087 37935 ft 377 kts 271°
2026-05-06 23:03 30.55657 -99.49073 37956 ft 377 kts 271°
2026-05-06 23:04 30.56426 -99.55093 37960 ft 377 kts 271°
2026-05-06 23:04 30.57192 -99.61112 37972 ft 377 kts 271°
2026-05-06 23:05 30.57956 -99.67135 37986 ft 377 kts 271°
2026-05-06 23:05 30.58711 -99.73117 37987 ft 377 kts 271°
2026-05-06 23:06 30.59468 -99.79137 38005 ft 375 kts 271°
2026-05-06 23:06 30.60217 -99.85111 38001 ft 372 kts 271°
2026-05-06 23:07 30.60950 -99.91016 37968 ft 371 kts 270°
2026-05-06 23:07 30.61683 -99.96946 37957 ft 371 kts 270°
2026-05-06 23:08 30.62415 -100.02890 37942 ft 371 kts 270°
2026-05-06 23:08 30.63143 -100.08818 37924 ft 371 kts 270°
2026-05-06 23:09 30.63867 -100.14754 37907 ft 371 kts 270°
2026-05-06 23:09 30.64586 -100.20651 37918 ft 371 kts 270°
2026-05-06 23:10 30.65305 -100.26573 37906 ft 369 kts 270°
2026-05-06 23:10 30.66019 -100.32488 37931 ft 369 kts 270°
2026-05-06 23:11 30.66729 -100.38392 37956 ft 369 kts 270°
2026-05-06 23:11 30.67437 -100.44303 37974 ft 369 kts 270°
2026-05-06 23:12 30.68139 -100.50178 37993 ft 369 kts 270°
2026-05-06 23:12 30.68843 -100.56102 38006 ft 369 kts 270°
2026-05-06 23:13 30.69546 -100.62027 38014 ft 370 kts 270°
2026-05-06 23:13 30.70245 -100.67947 38008 ft 370 kts 270°
2026-05-06 23:14 30.70941 -100.73868 37997 ft 370 kts 270°
2026-05-06 23:14 30.71630 -100.79756 37985 ft 370 kts 270°
2026-05-06 23:15 30.72320 -100.85678 37967 ft 370 kts 270°
2026-05-06 23:15 30.73008 -100.91606 37942 ft 370 kts 270°
2026-05-06 23:16 30.73690 -100.97497 37962 ft 370 kts 270°
2026-05-06 23:16 30.74374 -101.03432 37976 ft 370 kts 270°
2026-05-06 23:17 30.75053 -101.09349 37997 ft 370 kts 270°
2026-05-06 23:17 30.75730 -101.15278 37988 ft 369 kts 270°
2026-05-06 23:18 30.76405 -101.21192 38018 ft 367 kts 269°
2026-05-06 23:18 30.77068 -101.27041 37913 ft 366 kts 269°
2026-05-06 23:19 30.77731 -101.32925 37891 ft 366 kts 269°
2026-05-06 23:19 30.78391 -101.38796 37887 ft 366 kts 269°
2026-05-06 23:20 30.79050 -101.44684 37884 ft 367 kts 269°
2026-05-06 23:20 30.79701 -101.50535 37877 ft 367 kts 269°
2026-05-06 23:21 30.80355 -101.56420 37876 ft 367 kts 269°
2026-05-06 23:21 30.81005 -101.62298 37862 ft 366 kts 269°
2026-05-06 23:22 30.81653 -101.68183 37826 ft 366 kts 269°
2026-05-06 23:22 30.82192 -101.73123 37859 ft 371 kts 269°
2026-05-06 23:23 30.82846 -101.79098 37850 ft 372 kts 269°
2026-05-06 23:23 30.83498 -101.85078 37846 ft 372 kts 269°
2026-05-06 23:24 30.84141 -101.91016 37835 ft 372 kts 269°
2026-05-06 23:24 30.84786 -101.97000 37835 ft 372 kts 269°
2026-05-06 23:25 30.85429 -102.02983 37833 ft 372 kts 269°
2026-05-06 23:25 30.86065 -102.08947 37837 ft 371 kts 269°
2026-05-06 23:26 30.86699 -102.14908 37830 ft 371 kts 269°
2026-05-06 23:26 30.87331 -102.20865 37827 ft 371 kts 269°
2026-05-06 23:27 30.87956 -102.26787 37822 ft 370 kts 269°
2026-05-06 23:27 30.88582 -102.32746 37821 ft 370 kts 269°
2026-05-06 23:28 30.89203 -102.38701 37825 ft 371 kts 269°
2026-05-06 23:28 30.89821 -102.44627 37874 ft 365 kts 268°
2026-05-06 23:29 30.90425 -102.50458 37837 ft 363 kts 268°
2026-05-06 23:29 30.91021 -102.56287 37888 ft 362 kts 268°
2026-05-06 23:30 30.91619 -102.62105 37888 ft 361 kts 268°
2026-05-06 23:30 30.92209 -102.67875 37909 ft 361 kts 268°
2026-05-06 23:31 30.92799 -102.73684 37928 ft 361 kts 268°
2026-05-06 23:31 30.93386 -102.79483 37990 ft 358 kts 268°
2026-05-06 23:32 30.93962 -102.85224 37853 ft 356 kts 268°
2026-05-06 23:32 30.94532 -102.90963 37841 ft 356 kts 268°
2026-05-06 23:33 30.95123 -102.96657 37838 ft 359 kts 270°
2026-05-06 23:33 30.96482 -103.02384 37835 ft 369 kts 277°
2026-05-06 23:34 30.98088 -103.08078 37826 ft 369 kts 277°
2026-05-06 23:34 30.99662 -103.13769 37869 ft 369 kts 276°
2026-05-06 23:35 31.01208 -103.19420 37835 ft 368 kts 276°
2026-05-06 23:35 31.02762 -103.25106 37824 ft 368 kts 276°
2026-05-06 23:36 31.04325 -103.30806 37824 ft 368 kts 276°
2026-05-06 23:36 31.05880 -103.36509 37822 ft 368 kts 276°
2026-05-06 23:37 31.07414 -103.42168 37840 ft 368 kts 276°
2026-05-06 23:37 31.08971 -103.47875 37871 ft 368 kts 276°
2026-05-06 23:38 31.10523 -103.53611 37856 ft 374 kts 276°
2026-05-06 23:38 31.12109 -103.59419 37860 ft 376 kts 276°
2026-05-06 23:39 31.13695 -103.65222 37858 ft 376 kts 276°
2026-05-06 23:39 31.15263 -103.71006 37850 ft 375 kts 276°
2026-05-06 23:40 31.16832 -103.76832 37845 ft 376 kts 276°
2026-05-06 23:40 31.18400 -103.82656 37843 ft 375 kts 276°
2026-05-06 23:41 31.19959 -103.88494 37805 ft 379 kts 276°
2026-05-06 23:41 31.21526 -103.94348 37824 ft 381 kts 276°
2026-05-06 23:42 31.23110 -104.00256 37826 ft 381 kts 276°
2026-05-06 23:42 31.24688 -104.06178 37835 ft 381 kts 276°
2026-05-06 23:43 31.26255 -104.12062 37851 ft 381 kts 276°
2026-05-06 23:43 31.27826 -104.17973 37844 ft 381 kts 276°
2026-05-06 23:44 31.29392 -104.23880 37871 ft 379 kts 276°
2026-05-06 23:44 31.30955 -104.29789 37848 ft 380 kts 276°
2026-05-06 23:45 31.32509 -104.35666 37848 ft 380 kts 276°
2026-05-06 23:45 31.34066 -104.41581 37846 ft 380 kts 276°
2026-05-06 23:46 31.35624 -104.47510 37848 ft 380 kts 276°
2026-05-06 23:46 31.37178 -104.53416 37852 ft 380 kts 276°
2026-05-06 23:47 31.38719 -104.59304 37850 ft 380 kts 276°
2026-05-06 23:47 31.40263 -104.65221 37854 ft 380 kts 276°
2026-05-06 23:48 31.41809 -104.71141 37854 ft 380 kts 276°
2026-05-06 23:48 31.43354 -104.77067 37853 ft 380 kts 276°
2026-05-06 23:49 31.44893 -104.82996 37851 ft 380 kts 276°
2026-05-06 23:49 31.46428 -104.88920 37846 ft 380 kts 276°
2026-05-06 23:50 31.47964 -104.94859 37888 ft 379 kts 276°
2026-05-06 23:50 31.50240 -105.03680 37856 ft 377 kts 276°
2026-05-06 23:51 31.51751 -105.09563 37854 ft 377 kts 276°
2026-05-06 23:51 31.53264 -105.15461 37854 ft 377 kts 276°
2026-05-06 23:52 31.54774 -105.21355 37852 ft 377 kts 276°
2026-05-06 23:52 31.56278 -105.27247 37856 ft 377 kts 276°
2026-05-06 23:53 31.57777 -105.33128 37868 ft 374 kts 276°
2026-05-06 23:53 31.59250 -105.38983 37861 ft 374 kts 276°
2026-05-06 23:54 31.60728 -105.44803 37859 ft 374 kts 276°
2026-05-06 23:54 31.62218 -105.50649 37861 ft 374 kts 276°
2026-05-06 23:55 31.63706 -105.56501 37858 ft 374 kts 276°
2026-05-06 23:55 31.65187 -105.62360 37871 ft 374 kts 276°
2026-05-06 23:56 31.66661 -105.68205 37867 ft 373 kts 275°
2026-05-06 23:56 31.68121 -105.74016 37861 ft 372 kts 275°
2026-05-06 23:57 31.69584 -105.79843 37859 ft 372 kts 275°
2026-05-06 23:57 31.71044 -105.85686 37862 ft 372 kts 275°
2026-05-06 23:58 31.72501 -105.91522 37860 ft 372 kts 275°
2026-05-06 23:58 31.73944 -105.97325 37860 ft 372 kts 275°
2026-05-06 23:59 31.75398 -106.03176 37878 ft 375 kts 275°
2026-05-06 23:59 31.76865 -106.09100 37914 ft 377 kts 275°
2026-05-07 00:00 31.78333 -106.15018 37945 ft 377 kts 275°
2026-05-07 00:00 31.79548 -106.19940 37972 ft 377 kts 275°
2026-05-07 00:01 31.81242 -106.26871 38006 ft 375 kts 274°
2026-05-07 00:01 31.81976 -106.32784 38012 ft 364 kts 266°
2026-05-07 00:02 31.82394 -106.38727 38032 ft 364 kts 266°
2026-05-07 00:02 31.82830 -106.44668 38022 ft 364 kts 266°
2026-05-07 00:03 31.83272 -106.50610 38018 ft 366 kts 266°
2026-05-07 00:03 31.83716 -106.56565 38014 ft 365 kts 266°
2026-05-07 00:04 31.84153 -106.62515 38038 ft 365 kts 266°
2026-05-07 00:04 31.84583 -106.68429 38042 ft 365 kts 266°
2026-05-07 00:05 31.85017 -106.74368 38046 ft 364 kts 266°
2026-05-07 00:05 31.85453 -106.80312 38037 ft 364 kts 266°
2026-05-07 00:06 31.85879 -106.86211 38006 ft 364 kts 266°
2026-05-07 00:06 31.86089 -106.89174 37861 ft 364 kts 266°
2026-05-07 00:06 31.86299 -106.92144 37872 ft 364 kts 266°
2026-05-07 00:07 31.86721 -106.98091 37868 ft 364 kts 266°
2026-05-07 00:07 31.87137 -107.03968 37874 ft 362 kts 266°
2026-05-07 00:08 31.87551 -107.09914 37865 ft 366 kts 266°
2026-05-07 00:08 31.87899 -107.14897 37878 ft 367 kts 266°
2026-05-07 00:09 31.88315 -107.20896 37881 ft 368 kts 266°
2026-05-07 00:09 31.88728 -107.26896 37879 ft 368 kts 266°
2026-05-07 00:10 31.89139 -107.32898 37884 ft 367 kts 266°
2026-05-07 00:10 31.89545 -107.38895 37872 ft 367 kts 266°
2026-05-07 00:11 31.89950 -107.44903 37874 ft 369 kts 266°
2026-05-07 00:11 31.90350 -107.50886 37880 ft 369 kts 266°
2026-05-07 00:12 31.90751 -107.56919 37887 ft 369 kts 266°
2026-05-07 00:12 31.91148 -107.62946 37927 ft 369 kts 266°
2026-05-07 00:13 31.91538 -107.68977 37905 ft 369 kts 266°
2026-05-07 00:13 31.91928 -107.74995 37927 ft 371 kts 266°
2026-05-07 00:14 31.92326 -107.81044 37905 ft 370 kts 266°
2026-05-07 00:14 31.92738 -107.87090 37897 ft 370 kts 266°
2026-05-07 00:15 31.93149 -107.93136 37899 ft 370 kts 266°
2026-05-07 00:15 31.93552 -107.99188 37898 ft 370 kts 266°
2026-05-07 00:16 31.93951 -108.05226 37902 ft 370 kts 266°
2026-05-07 00:16 31.94348 -108.11230 37908 ft 369 kts 266°
2026-05-07 00:17 31.94741 -108.17266 37918 ft 370 kts 266°
2026-05-07 00:17 31.95131 -108.23318 37915 ft 370 kts 266°
2026-05-07 00:18 31.95522 -108.29361 37911 ft 370 kts 266°
2026-05-07 00:18 31.95906 -108.35371 37911 ft 370 kts 266°
2026-05-07 00:19 31.96292 -108.41420 37911 ft 370 kts 266°
2026-05-07 00:19 31.96671 -108.47479 37919 ft 371 kts 266°
2026-05-07 00:20 31.97032 -108.53556 37915 ft 372 kts 266°
2026-05-07 00:20 31.97397 -108.59602 37920 ft 372 kts 266°
2026-05-07 00:21 31.97769 -108.65681 37919 ft 372 kts 266°
2026-05-07 00:21 31.98140 -108.71768 37925 ft 372 kts 266°
2026-05-07 00:22 31.98512 -108.77856 37923 ft 372 kts 266°
2026-05-07 00:22 31.98882 -108.83969 37918 ft 374 kts 266°
2026-05-07 00:23 31.99248 -108.90059 37922 ft 375 kts 266°
2026-05-07 00:23 31.99611 -108.96193 37924 ft 374 kts 266°
2026-05-07 00:24 31.99969 -109.02286 37924 ft 375 kts 266°
2026-05-07 00:24 32.00325 -109.08410 37920 ft 374 kts 266°
2026-05-07 00:25 32.00679 -109.14549 37928 ft 376 kts 266°
2026-05-07 00:25 32.01032 -109.20715 37928 ft 377 kts 266°
2026-05-07 00:26 32.01377 -109.26858 37928 ft 378 kts 266°
2026-05-07 00:26 32.01726 -109.33040 37929 ft 378 kts 266°
2026-05-07 00:27 32.02068 -109.39240 37937 ft 378 kts 266°
2026-05-07 00:27 32.02403 -109.45379 37935 ft 377 kts 266°
2026-05-07 00:28 32.02740 -109.51568 37936 ft 379 kts 266°
2026-05-07 00:28 32.03080 -109.57774 37930 ft 380 kts 266°
2026-05-07 00:29 32.03418 -109.63996 37929 ft 380 kts 266°
2026-05-07 00:30 32.04069 -109.76403 37939 ft 380 kts 266°
2026-05-07 00:30 32.04396 -109.82621 37946 ft 381 kts 266°
2026-05-07 00:31 32.04720 -109.88881 37943 ft 383 kts 266°
2026-05-07 00:31 32.04884 -109.91999 37781 ft 379 kts 266°
2026-05-07 00:31 32.05044 -109.95099 36908 ft 379 kts 266°
2026-05-07 00:32 32.05203 -109.98208 35951 ft 380 kts 266°
2026-05-07 00:32 32.05362 -110.01296 34961 ft 383 kts 266°
2026-05-07 00:32 32.05518 -110.04432 34027 ft 384 kts 266°
2026-05-07 00:32 32.05675 -110.07594 32870 ft 387 kts 266°
2026-05-07 00:33 32.05833 -110.10776 31637 ft 391 kts 266°
2026-05-07 00:33 32.05992 -110.14003 30387 ft 397 kts 266°
2026-05-07 00:33 32.06151 -110.17285 29020 ft 402 kts 267°
2026-05-07 00:33 32.06315 -110.20589 27723 ft 405 kts 268°
2026-05-07 00:34 32.06476 -110.23916 26468 ft 407 kts 269°
2026-05-07 00:34 32.06635 -110.27263 25229 ft 410 kts 270°
2026-05-07 00:34 32.06790 -110.30628 24096 ft 413 kts 271°
2026-05-07 00:34 32.06947 -110.33976 23375 ft 404 kts 271°
2026-05-07 00:35 32.07101 -110.37260 22452 ft 397 kts 271°
2026-05-07 00:35 32.07254 -110.40505 21483 ft 394 kts 271°
2026-05-07 00:35 32.07399 -110.43679 20558 ft 391 kts 272°
2026-05-07 00:35 32.07542 -110.46878 19648 ft 389 kts 272°
2026-05-07 00:36 32.07686 -110.50052 18755 ft 387 kts 272°
2026-05-07 00:36 32.07833 -110.53231 17819 ft 387 kts 272°
2026-05-07 00:36 32.07973 -110.56396 16923 ft 384 kts 272°
2026-05-07 00:36 32.08112 -110.59532 16089 ft 381 kts 272°
2026-05-07 00:37 32.08249 -110.62636 15308 ft 377 kts 272°
2026-05-07 00:37 32.08384 -110.65682 14541 ft 374 kts 272°
2026-05-07 00:37 32.08520 -110.68735 13791 ft 371 kts 271°
2026-05-07 00:37 32.08648 -110.71772 12799 ft 371 kts 272°
2026-05-07 00:38 32.08777 -110.74838 11677 ft 377 kts 272°
2026-05-07 00:38 32.08911 -110.77894 11200 ft 364 kts 272°
2026-05-07 00:38 32.09039 -110.80814 10929 ft 348 kts 272°
2026-05-07 00:38 32.09159 -110.83571 10648 ft 333 kts 271°
2026-05-07 00:39 32.09272 -110.86245 10387 ft 320 kts 271°
2026-05-07 00:39 32.09382 -110.88807 10163 ft 306 kts 271°
2026-05-07 00:39 32.09769 -110.91238 9786 ft 302 kts 289°
2026-05-07 00:39 32.10725 -110.93435 9304 ft 300 kts 296°
2026-05-07 00:40 32.11938 -110.95418 8842 ft 297 kts 316°
2026-05-07 00:40 32.13500 -110.96948 8546 ft 287 kts 322°
2026-05-07 00:40 32.15088 -110.98379 8059 ft 286 kts 323°
2026-05-07 00:40 32.16668 -110.99800 7592 ft 284 kts 323°
2026-05-07 00:41 32.18230 -111.01211 7148 ft 283 kts 323°
2026-05-07 00:41 32.19785 -111.02622 6709 ft 280 kts 323°
2026-05-07 00:41 32.21319 -111.04026 6265 ft 278 kts 323°
2026-05-07 00:41 32.22822 -111.05403 5844 ft 275 kts 323°
2026-05-07 00:42 32.24323 -111.06773 5472 ft 270 kts 323°
2026-05-07 00:42 32.25789 -111.08123 5101 ft 264 kts 323°
2026-05-07 00:42 32.27231 -111.09461 4971 ft 263 kts 323°
2026-05-07 00:42 32.28710 -111.10720 4955 ft 262 kts 329°
2026-05-07 00:43 32.30339 -111.11673 4959 ft 261 kts 337°
2026-05-07 00:43 32.32013 -111.12495 4967 ft 261 kts 338°
2026-05-07 00:43 32.33712 -111.13305 4968 ft 264 kts 338°
2026-05-07 00:43 32.35416 -111.14124 4982 ft 263 kts 339°
2026-05-07 00:44 32.37034 -111.14925 4971 ft 247 kts 338°
2026-05-07 00:44 32.38574 -111.15693 4898 ft 233 kts 338°
2026-05-07 00:44 32.40029 -111.16417 4904 ft 228 kts 338°
2026-05-07 00:44 32.41620 -111.17204 5047 ft 253 kts 338°
2026-05-07 00:45 32.43191 -111.17967 5014 ft 235 kts 338°
2026-05-07 00:45 32.44650 -111.18678 4995 ft 219 kts 338°
2026-05-07 00:45 32.46008 -111.19345 4971 ft 203 kts 338°
2026-05-07 00:45 32.47306 -111.19981 4967 ft 203 kts 338°
2026-05-07 00:46 32.48604 -111.20611 4972 ft 201 kts 338°
2026-05-07 00:46 32.49887 -111.21246 4976 ft 199 kts 338°
2026-05-07 00:46 32.51170 -111.21887 4992 ft 201 kts 338°
2026-05-07 00:46 32.52442 -111.22516 4995 ft 201 kts 338°
2026-05-07 00:47 32.53730 -111.23155 4997 ft 200 kts 338°
2026-05-07 00:47 32.55013 -111.23800 4998 ft 200 kts 336°
2026-05-07 00:47 32.56241 -111.24620 4999 ft 203 kts 323°
2026-05-07 00:47 32.57175 -111.25877 4998 ft 205 kts 306°
2026-05-07 00:48 32.57930 -111.27252 4987 ft 189 kts 304°
2026-05-07 00:48 32.58611 -111.28541 4986 ft 182 kts 304°
2026-05-07 00:48 32.59276 -111.29790 4992 ft 181 kts 304°
2026-05-07 00:48 32.59952 -111.31057 4996 ft 181 kts 304°
2026-05-07 00:49 32.60595 -111.32349 4886 ft 182 kts 298°
2026-05-07 00:49 32.60929 -111.33786 4615 ft 184 kts 273°
2026-05-07 00:49 32.60653 -111.35274 4404 ft 188 kts 245°
2026-05-07 00:49 32.59858 -111.36510 4103 ft 190 kts 226°
2026-05-07 00:50 32.58910 -111.37618 3779 ft 189 kts 221°
2026-05-07 00:50 32.57800 -111.38190 3583 ft 167 kts 181°
2026-05-07 00:50 32.56746 -111.37756 3240 ft 162 kts 147°
2026-05-07 00:50 32.55783 -111.37138 3040 ft 152 kts 151°
2026-05-07 00:51 32.54841 -111.36574 2896 ft 151 kts 149°
2026-05-07 00:51 32.53986 -111.35943 2735 ft 141 kts 143°
2026-05-07 00:51 32.53241 -111.35199 2480 ft 138 kts 135°
2026-05-07 00:51 32.52578 -111.34390 2164 ft 140 kts 132°
2026-05-07 00:52 32.51883 -111.33603 1977 ft 133 kts 133°
2026-05-07 00:52 32.51250 -111.32861 1903 ft 123 kts 133°
2026-05-07 00:52 32.50805 -111.32321 1901 ft 51 kts 134°
2026-05-07 00:52 32.50637 -111.32129 1904 ft 32 kts 135°
2026-05-07 00:53 32.50503 -111.31973 1906 ft 26 kts 135°
2026-05-07 00:53 32.50385 -111.31832 1907 ft 23 kts 134°
2026-05-07 00:53 32.50396 -111.31744 1903 ft 13 kts 49°
2026-05-07 00:53 32.50468 -111.31702 1895 ft 6 kts 349°
2026-05-07 00:54 32.50509 -111.31732 1902 ft 8 kts 326°
2026-05-07 00:54 32.50562 -111.31782 1899 ft 11 kts 317°
2026-05-07 00:54 32.50603 -111.31827 1906 ft 13 kts 317°
2026-05-07 00:54 32.50669 -111.31912 1901 ft 15 kts 313°
2026-05-07 00:55 32.50733 -111.31990 1900 ft 2 kts 319°
2026-05-07 00:55 32.50751 -111.31980 1904 ft 4 kts 43°
2026-05-07 00:55 32.50774 -111.31954 1904 ft 5 kts 43°
2026-05-07 00:55 32.50804 -111.31920 1900 ft 5 kts 44°
2026-05-07 00:56 32.50808 -111.31916 1899 ft 0 kts 44°